THOR ABLESTAR DEB, 17713

Orbit data source: Space-Track

THOR ABLESTAR DEB, 17713 is space debris in LEO originally from a launch on Thu, 29 Jun 1961 UTC launched from the Air Force Eastern Test Range (AFETR). Debris objects in space refer to the collection of defunct objects orbiting the Earth. Examples of debris include non-operational satellites, rocket bodies, and fragments generated from explosions, collisions, or faulty payload assembly.

Loading next visibility...
Identifier
17713, 1961-015LR
Orbit
LEO
Country
Flag of USUS
Related business
Manufacturer
Unknown
Mission
Spacecraft
Bus & Motor
Unknown
Mass
Unknown
Launch date (UTC)
1961-06-29 (65 years ago)
Launch vehicle
Unknown
Launch site
Air Force Eastern Test Range (AFETR)
Object type
Payload
Rocket body
Debris
Shape & HBR
Unknown shape, 0.1 m
Radar Cross Section
Medium (>0.1 m² and <1 m²)

Expand to show TLE details & history
Last TLE update: 14 hours ago

TLE from 14 hours ago
0 THOR ABLESTAR DEB
1 17713U 61015LR  26235.70160764  .00000223  00000-0  20892-3 0  9992
2 17713  66.2108 128.3060 0059211 120.6344 271.1480 13.98727817109772
Epoch: 2026-08-23T16:50Z
TLE epoch observation values (Epoch: 2026-08-23T16:50:18.900Z)
Latitude
28.26877°
Longitude
-82.6274°
Altitude
900.205 km
Speed
7.405 km/s
True Right ascension
09h 27m 46s
True Declination
28° 07' 42"
Sunlit
Object was in daylight at epoch
Visualization orbit readout
Latitude
Unknown
Longitude
Unknown
Altitude
Unknown
Speed
Unknown
Apparent Right ascension
Unknown
Apparent Declination
Unknown
Sunlit
N/A
Visualization observer readout
Local Sidereal Time
21:54:58
Azimuth
Unknown
Elevation
Unknown
Doppler factor
Unknown
Orbital elements
Apogee altitude
939.734 km
Perigee altitude
853.585 km
Semi-major axis
7,274.796 km
Eccentricity
0.00592
Inclination
66.2108°
RAAN
128.306°
Arg. of periapsis
120.6344°
True anomaly
270.46954°
Mean anomaly
271.148°
Eccentric anomaly
270.80878°
Mean motion
3.49794 °/min
Orbital period
102.92 mins
BSTAR
0.00020892

Documentation

Showing up to 5 results
|